This demonstration page uses our WeatherBlox Daily Observations layout. Learn more.

Left ArrowRight Arrow

Hourly Observations for March 4, 2020

Temp ( °F °C ) Dew Point ( °F °C ) Humidity (%) Winds ( mph kmh ) Pressure ( in mb ) Visibility ( mi km ) Precip ( " mm )
12:56 am 00:56 Clear 38 3.3 28 -2.2 68 68 W 10 17 30.01 1016 10 16 0.00 0.00
1:56 am 01:56 Clear 35 1.7 27 -2.8 72 72 W 8 13 30.03 1017 10 16 0.00 0.00
2:56 am 02:56 Clear 38 3.3 29 -1.7 70 70 WNW 10 17 30.03 1017 10 16 0.00 0.00
3:56 am 03:56 Clear 35 1.7 28 -2.2 76 76 WNW 12 19 30.02 1017 10 16 0.00 0.00
4:56 am 04:56 Clear 34 1.1 27 -2.8 76 76 W 9 15 30.03 1017 10 16 0.00 0.00
5:56 am 05:56 Clear 33 0.6 27 -2.8 78 78 NW 9 15 30.03 1017 10 16 0.00 0.00
6:56 am 06:56 Clear 33 0.6 26 -3.3 75 75 W 6 9 30.06 1018 10 16 0.00 0.00
7:56 am 07:56 Sunny 33 0.6 27 -2.8 78 78 SW 7 11 30.06 1018 10 16 0.00 0.00
8:56 am 08:56 Sunny 41 5 29 -1.7 62 62 Calm 30.04 1017 10 16 0.00 0.00
9:56 am 09:56 Sunny 48 8.9 31 -0.6 52 52 SSW 10 17 30.05 1018 10 16 0.00 0.00
10:56 am 10:56 Sunny 54 12.2 29 -1.7 38 38 SW 14 22 30.01 1016 10 16 0.00 0.00
11:56 am 11:56 Sunny 58 14.4 25 -3.9 28 28 SSW 22 35 29.98 1015 10 16 0.00 0.00
12:56 pm 12:56 Sunny 58 14.4 25 -3.9 28 28 SW 23 37 29.96 1015 10 16 0.00 0.00
1:56 pm 13:56 Sunny 62 16.7 27 -2.8 26 26 SW 20 31 29.92 1013 10 16 0.00 0.00
2:56 pm 14:56 Sunny 63 17.2 26 -3.3 25 25 SSW 28 44 29.88 1012 10 16 0.00 0.00
3:56 pm 15:56 Sunny 64 17.8 24 -4.4 22 22 SW 24 39 29.87 1012 10 16 0.00 0.00
4:56 pm 16:56 Sunny 64 17.8 23 -5 21 21 SSW 24 39 29.86 1011 10 16 0.00 0.00
5:56 pm 17:56 Sunny 61 16.1 24 -4.4 24 24 SSW 22 35 29.84 1011 10 16 0.00 0.00
6:56 pm 18:56 Clear 56 13.3 23 -5 28 28 S 17 28 29.85 1011 10 16 0.00 0.00
7:56 pm 19:56 Clear 54 12.2 23 -5 30 30 SSW 21 33 29.85 1011 10 16 0.00 0.00
8:56 pm 20:56 Clear 51 10.6 23 -5 33 33 SSW 18 30 29.85 1011 10 16 0.00 0.00
9:56 pm 21:56 Clear 49 9.4 22 -5.6 35 35 SW 17 28 29.85 1011 10 16 0.00 0.00
10:56 pm 22:56 Clear 50 10 22 -5.6 33 33 SW 16 26 29.88 1012 10 16 0.00 0.00
11:56 pm 23:56 Clear 46 7.8 23 -5 40 40 NW 12 19 29.93 1014 10 16 0.00 0.00

Powered by AerisWeather